Regional Weather Roundup
Issued by NWS Albany, NY

Home | Current Version | Previous Version | Graphics & Text | Print | Product List | Glossary On
Versions: 1 2 3 4 5 6 7 8 9 10 11 12 13 14 15 16 17 18 19 20 21 22 23 24 25 26 27 28 29 30 31 32 33 34 35 36 37 38 39 40 41 42 43 44 45 46 47 48 49 50
000
ASUS41 KALY 242310
RWRALY

NEW YORK STATE HOURLY WEATHER ROUNDUP
NATIONAL WEATHER SERVICE ALBANY NY
700 PM EDT THU JUL 24 2014

NOTE: "FAIR" INDICATES FEW OR NO CLOUDS BELOW 12,000 FEET WITH NO
SIGNIFICANT WEATHER AND/OR NO OBSTRUCTIONS TO VISIBILITY.

NYZ032-033-038>043-046>054-057>066-NYZ062>081-250000-
EAST


CITY           SKY/WX    TMP DP  RH WIND       PRES   REMARKS
ALBANY         PTSUNNY   74  55  51 NW6       29.88R
GLENS FALLS    SUNNY     73  55  53 NE7       29.88R
POUGHKEEPSIE   SUNNY     76  56  49 N7        29.85S
NEWBURGH       MOSUNNY   75  57  53 N9        29.88S
MONTGOMERY     CLOUDY    74  59  59 N3        29.87S
WHITE PLAINS   MOSUNNY   75  57  53 NW8       29.85S
ISLIP          MOSUNNY   80  57  45 N13       29.82R
NEW YORK CITY  MOSUNNY   78  56  46 N9        29.84R
CENTRAL PARK   PTSUNNY   76  58  53 NE7       29.88R
$$

NYZ005>009-017-018-044>046-055-056-250000-
CENTRAL


CITY           SKY/WX    TMP DP  RH WIND       PRES   REMARKS
FULTON         SUNNY     67  51  56 NW8       29.99R
SYRACUSE       MOSUNNY   70  48  45 NW10      29.98R
ROME           SUNNY     70  52  52 W7        29.95R
ELMIRA         SUNNY     69  49  48 N8        29.99R
BINGHAMTON     SUNNY     65  48  54 NW10      29.99R
MONTICELLO     MOSUNNY   68  52  56 NW12      29.95R
$$

NYZ026>034-041>043-250000-
NORTH


CITY           SKY/WX    TMP DP  RH WIND       PRES   REMARKS
WATERTOWN      SUNNY     69  52  54 W7        29.97R
FORT DRUM      NOT AVBL
MASSENA        SUNNY     69  53  56 SW5       29.94S
SARANAC LAKE   SUNNY     64  47  53 VRB6      29.95R
PLATTSBURGH    SUNNY     70  49  47 NW8       29.91R
$$

NYZ001>004-010>016-019>021-250000-
WEST


CITY           SKY/WX    TMP DP  RH WIND       PRES   REMARKS
NIAGARA FALLS  SUNNY     72  47  40 N6        30.00F
BUFFALO        MOSUNNY   71  46  40 N8        30.01S
DUNKIRK        SUNNY     69  44  40 VRB7      30.02F
JAMESTOWN      SUNNY     64  46  52 N8        30.04F
WELLSVILLE     SUNNY     67  46  47 N12       30.04S
ROCHESTER      SUNNY     71  47  42 N8        30.00S
PENN YAN       SUNNY     69  44  40 NW6       30.01S
$$

             KEY
       WCI = WIND CHILL INDEX
       VSB = VISIBILITY
       HX  = HEAT INDEX
$$


USA.gov is the U.S. government's official web portal to all federal, state and local government web resources and services.